Total_Precipitation_Accumulation
0.03 0.04 0.08 0.08 0.10 0.12 0.14 0.20 0.25 0.36 0.29 0.27 0.41 0.66 0.79 0.80 0.83 0.97 1.15 1.16 1.19 1.31 1.70 2.18 2.71 3.21 3.87 4.80 5.79 6.26 6.15 5.58 5.06 4.62 4.23 3.99 3.69 3.42 3.28 2.95 2.59 2.56 2.53 2.55
0.05 0.07 0.05 0.06 0.07 0.10 0.15 0.23 0.26 0.33 0.28 0.32 0.45 0.70 0.91 1.00 1.07 1.00 1.05 1.17 1.13 1.31 1.76 2.28 2.88 3.27 3.60 4.14 4.92 5.32 5.08 4.50 3.86 3.58 3.50 3.45 3.41 3.04 2.81 2.70 2.65 2.37 2.39 2.47
0.05 0.06 0.04 0.04 0.05 0.11 0.16 0.20 0.26 0.32 0.29 0.38 0.52 0.96 1.25 1.25 1.02 0.82 0.74 0.88 0.92 1.03 1.56 2.29 2.84 3.13 3.40 3.61 3.61 3.78 3.74 3.33 3.02 2.91 2.90 2.95 3.13 2.90 2.60 2.51 2.45 2.22 2.13 2.11
0.03 0.04 0.03 0.04 0.06 0.10 0.16 0.13 0.14 0.21 0.32 0.54 0.61 1.39 1.65 1.37 1.14 0.90 0.73 0.74 0.78 0.95 1.41 2.16 2.46 2.58 2.64 2.72 2.52 2.55 2.69 2.61 2.60 2.52 2.52 2.44 2.33 2.33 2.23 2.21 2.17 2.13 1.99 1.90
0.05 0.04 0.03 0.04 0.06 0.10 0.14 0.11 0.12 0.20 0.35 0.54 0.76 1.28 1.74 1.52 1.31 0.97 0.72 0.69 0.77 0.84 1.11 1.45 1.56 1.69 1.76 1.81 1.84 2.03 2.36 2.48 2.41 2.35 2.47 2.49 2.21 2.08 2.00 2.03 2.16 2.11 1.97 1.81
0.06 0.06 0.04 0.05 0.06 0.08 0.11 0.15 0.20 0.35 0.55 0.97 1.00 1.19 1.63 1.46 1.16 0.80 0.66 0.66 0.59 0.61 0.80 1.00 1.08 1.16 1.21 1.25 1.38 1.62 2.09 2.32 2.22 2.18 2.21 2.19 2.15 2.12 2.03 1.97 2.04 2.00 1.92 1.90
0.11 0.09 0.10 0.08 0.09 0.11 0.11 0.17 0.44 0.86 1.32 1.46 0.95 1.10 1.45 1.07 0.77 0.58 0.49 0.50 0.53 0.65 0.72 0.84 1.00 1.07 0.99 0.96 1.09 1.31 1.66 1.81 1.79 1.87 1.99 2.06 2.14 2.11 1.95 1.88 1.83 1.80 1.66 1.74
0.16 0.18 0.14 0.09 0.08 0.10 0.14 0.16 0.34 0.63 0.77 0.91 0.91 1.36 1.48 0.87 0.60 0.47 0.43 0.44 0.56 0.64 0.63 0.65 0.75 0.75 0.75 0.83 0.91 1.08 1.26 1.35 1.45 1.58 1.78 1.94 1.96 1.93 1.87 1.99 1.86 1.71 1.53 1.49
0.07 0.09 0.07 0.06 0.07 0.09 0.12 0.13 0.15 0.22 0.32 0.65 1.05 1.30 1.20 0.80 0.53 0.42 0.40 0.39 0.49 0.52 0.47 0.47 0.53 0.57 0.62 0.80 0.91 0.98 1.08 1.19 1.31 1.41 1.67 1.82 1.82 1.76 1.79 1.88 1.80 1.62 1.63 1.54
0.04 0.04 0.06 0.06 0.07 0.09 0.10 0.11 0.12 0.17 0.35 0.64 1.02 1.41 1.36 1.02 0.71 0.59 0.46 0.38 0.45 0.45 0.41 0.45 0.50 0.57 0.58 0.63 0.81 0.92 0.99 1.15 1.31 1.39 1.45 1.48 1.61 1.59 1.57 1.52 1.51 1.58 1.62 1.60
0.04 0.04 0.05 0.07 0.09 0.11 0.09 0.09 0.10 0.13 0.20 0.45 0.87 1.15 0.89 0.75 0.59 0.59 0.55 0.50 0.50 0.53 0.51 0.48 0.56 0.59 0.59 0.60 0.75 0.87 0.94 1.05 1.15 1.17 1.20 1.30 1.38 1.37 1.34 1.34 1.31 1.43 1.48 1.53
0.04 0.05 0.06 0.09 0.12 0.10 0.09 0.08 0.10 0.14 0.18 0.25 0.54 0.74 0.51 0.53 0.48 0.54 0.58 0.62 0.66 0.70 0.65 0.62 0.68 0.64 0.68 0.71 0.75 0.84 0.83 0.87 0.93 1.00 1.04 1.10 1.23 1.23 1.23 1.26 1.40 1.49 1.48 1.43
0.04 0.06 0.08 0.20 0.26 0.18 0.11 0.09 0.11 0.12 0.14 0.18 0.47 0.72 0.50 0.50 0.57 0.62 0.60 0.69 0.72 0.65 0.68 0.84 0.85 0.71 0.72 0.74 0.76 0.78 0.76 0.80 0.85 0.90 0.92 0.97 1.12 1.28 1.36 1.40 1.46 1.55 1.57 1.52
0.06 0.06 0.07 0.19 0.27 0.26 0.20 0.15 0.14 0.14 0.15 0.18 0.30 0.52 0.49 0.46 0.57 0.68 0.61 0.65 0.71 0.68 0.70 0.86 0.96 0.76 0.67 0.67 0.69 0.71 0.70 0.67 0.67 0.79 0.93 1.01 1.21 1.43 1.53 1.54 1.56 1.57 1.59 1.58
0.07 0.07 0.06 0.07 0.13 0.19 0.21 0.18 0.15 0.12 0.13 0.20 0.29 0.43 0.55 0.64 0.66 0.62 0.62 0.68 0.66 0.71 0.73 0.73 0.77 0.70 0.67 0.67 0.68 0.68 0.70 0.71 0.72 0.91 1.06 1.21 1.43 1.51 1.56 1.63 1.65 1.71 1.73 1.64
0.10 0.09 0.08 0.08 0.14 0.15 0.16 0.19 0.14 0.10 0.11 0.17 0.28 0.46 0.57 0.57 0.67 0.70 0.63 0.61 0.67 0.74 0.78 0.87 0.87 0.83 0.87 0.82 0.79 0.80 0.82 0.89 1.03 1.19 1.33 1.42 1.52 1.59 1.55 1.55 1.57 1.72 1.78 1.84
0.18 0.18 0.18 0.17 0.19 0.20 0.23 0.21 0.16 0.14 0.17 0.23 0.31 0.47 0.57 0.65 0.78 0.87 0.86 0.77 0.79 0.90 0.93 1.04 1.10 1.06 1.07 1.01 1.00 1.10 1.09 1.17 1.34 1.50 1.67 1.69 1.67 1.71 1.71 1.74 1.76 1.78 1.90 2.02
0.27 0.29 0.26 0.24 0.30 0.41 0.33 0.24 0.22 0.22 0.24 0.28 0.39 0.53 0.66 0.78 0.81 0.95 1.04 1.01 0.93 0.90 0.96 1.08 1.16 1.14 1.08 1.09 1.16 1.39 1.51 1.51 1.64 1.75 1.86 1.95 1.98 2.06 2.13 2.21 2.19 2.21 2.25 2.30
0.29 0.39 0.39 0.38 0.47 0.47 0.40 0.34 0.31 0.33 0.44 0.44 0.55 0.79 0.92 0.93 1.08 1.28 1.20 1.06 1.04 1.08 1.08 1.23 1.22 1.19 1.19 1.36 1.42 1.50 1.61 1.64 1.82 2.01 2.15 2.22 2.28 2.31 2.35 2.38 2.46 2.57 2.70 2.73
0.35 0.38 0.48 0.47 0.57 0.65 0.61 0.48 0.45 0.57 1.06 0.90 0.88 0.94 0.92 1.02 1.44 1.49 1.15 1.01 1.08 1.13 1.23 1.36 1.39 1.35 1.42 1.68 1.75 1.83 1.91 1.98 2.06 2.16 2.33 2.52 2.63 2.65 2.63 2.68 2.82 2.98 3.14 3.16
0.62 0.62 0.58 0.55 0.65 0.72 0.66 0.55 0.62 1.17 1.62 1.31 1.18 1.14 1.17 1.36 1.41 1.39 1.24 1.09 1.05 1.10 1.20 1.35 1.40 1.41 1.48 1.69 1.89 2.16 2.31 2.35 2.36 2.41 2.53 2.66 2.76 2.89 2.95 3.04 3.12 3.28 3.39 3.34
0.90 0.94 0.92 0.88 1.03 1.10 0.73 0.73 1.11 1.45 1.28 1.37 1.50 1.52 1.49 1.49 1.32 1.23 1.20 1.23 1.20 1.18 1.23 1.30 1.43 1.50 1.61 1.76 2.00 2.23 2.40 2.56 2.66 2.65 2.77 2.82 2.83 2.74 2.74 2.98 3.17 3.36 3.56 3.51
1.13 1.16 1.19 1.24 1.38 1.23 0.96 1.04 1.11 1.09 1.24 1.35 1.44 1.58 1.64 1.60 1.59 1.45 1.39 1.39 1.34 1.26 1.20 1.22 1.30 1.43 1.54 1.64 1.85 2.24 2.38 2.44 2.51 2.62 2.67 2.78 2.82 2.86 2.92 3.11 3.27 3.46 3.56 3.50
1.19 1.16 1.28 1.43 1.49 1.37 1.28 1.29 1.32 1.32 1.39 1.40 1.42 1.51 1.58 1.60 1.69 1.61 1.46 1.33 1.23 1.17 1.15 1.20 1.28 1.39 1.47 1.44 1.60 1.82 2.05 2.18 2.23 2.26 2.30 2.31 2.43 2.60 2.83 3.13 3.23 3.28 3.32 3.33
1.32 1.27 1.43 1.80 1.90 1.86 1.73 1.71 1.68 1.59 1.64 1.70 1.62 1.58 1.61 1.52 1.51 1.50 1.32 1.20 1.17 1.18 1.13 1.19 1.35 1.37 1.40 1.46 1.50 1.55 1.61 1.82 1.98 1.98 2.00 2.11 2.21 2.39 2.60 2.82 2.99 2.96 2.98 3.16
1.61 1.56 1.63 1.92 1.95 2.13 2.10 1.89 1.81 1.70 1.73 1.74 1.69 1.58 1.52 1.47 1.46 1.37 1.24 1.15 1.14 1.13 1.15 1.22 1.31 1.30 1.30 1.39 1.46 1.49 1.59 1.76 1.83 1.77 1.78 1.82 1.87 2.02 2.20 2.36 2.49 2.52 2.30 2.36